Home   Weather   Lancaster   Past weeks

Flag for USA Past Weather in Lancaster, California, USA — Yesterday and Last 2 Weeks

Now
62 °F

Clear.


Feels Like: 62 °F
Forecast: 59 / 85 °F
Wind: 15 mph from West

Location: Lancaster / Fox Field

Current Time: Oct 1, 2016 at 6:57:03 AM

Latest Report: Oct 1, 2016 at 5:56 AM


Visibility: 10 mi

Pressure: 29.98 "Hg (27.55 "Hg at 718m altitude)

Humidity: 41%

Dew Point: 38 °F

Location of LancasterLocation

Past Weather in Lancaster — Graph

°F

Lancaster Temperature Yesterday

Maximum temperature yesterday: 91 °F (at 2:56 PM)
Minimum temperature yesterday: 60 °F (at 5:56 AM)
Average temperature yesterday: 76 °F

High & Low Weather Summary for the Past Weeks

 TemperatureHumidityPressure
High100 °F (Sep 19, 12:56 PM)81% (Sep 21, 4:56 AM)30.19 "Hg (Sep 21, 4:56 AM)
Low48 °F (Sep 24, 5:56 AM)5% (Sep 18, 2:56 PM)29.80 "Hg (Sep 21, 3:56 PM)
Average73 °F29%29.99 "Hg
* Reported Sep 16 5:56 AM — Oct 1 5:56 AM, Lancaster, Weather by CustomWeather, © 2016

Note: Actual official high and low records may vary slightly from our data, if they occured in-between our weather recording intervals... More about our weather records

Advertising

Lancaster Weather History for the Previous 24 Hours

Scroll right to see more
 ConditionsComfort  
Time TempWeatherWind HumidityBarometerVisibility
5:56 AM
Sat, Oct 1
62 °FClear.15 mph41%29.98 "Hg10 mi
4:56 AM64 °FClear.10 mph40%29.98 "Hg10 mi
3:56 AM65 °FClear.10 mph39%29.98 "Hg10 mi
2:56 AM64 °FClear.7 mph41%29.98 "Hg10 mi
1:56 AM67 °FClear.12 mph37%29.99 "Hg10 mi
12:56 AM69 °FClear.15 mph35%29.98 "Hg10 mi
11:56 PM
Fri, Sep 30
69 °FClear.10 mph36%29.98 "Hg10 mi
10:56 PM71 °FClear.10 mph38%29.98 "Hg10 mi
9:56 PM72 °FClear.10 mph37%29.98 "Hg10 mi
8:56 PM73 °FClear.15 mph37%29.97 "Hg10 mi
7:56 PM76 °FClear.16 mph35%29.97 "Hg10 mi
6:56 PM79 °FClear.18 mph29%29.96 "Hg10 mi
5:56 PM83 °FSunny.18 mph26%29.95 "Hg10 mi
4:56 PM88 °FSunny.21 mph20%29.94 "Hg10 mi
3:56 PM89 °FSunny.16 mph19%29.95 "Hg10 mi
2:56 PM91 °FSunny.21 mph17%29.95 "Hg10 mi
1:56 PM90 °FSunny.13 mph17%29.97 "Hg10 mi
12:56 PM90 °FSunny.15 mph17%30.01 "Hg10 mi
11:56 AM90 °FSunny.10 mph17%30.03 "Hg10 mi
10:56 AM86 °FSunny.3 mph23%30.05 "Hg10 mi
9:56 AM80 °FSunny.No wind28%30.06 "Hg10 mi
8:56 AM72 °FSunny.No wind37%30.07 "Hg10 mi
7:56 AM65 °FSunny.No wind45%30.08 "Hg10 mi
6:56 AM60 °FSunny.3 mph49%30.07 "Hg10 mi
Weather by CustomWeather, © 2016

See weather overviewHow to use our weather pages